FW2454 Weather Reports


Display with metric or nautical units.
time (UTC)temp
F
wind
direction
speed
MPH
gust
MPH
rain 1hr
in
rain 24hr
in
rain mn
in
humidity
%
barometer
mb
20260507184539 87 25 1.0 9.0 0.00 0.00 0.00 75 1011.0
20260507183039 87 285 2.0 5.0 0.00 0.00 0.00 78 1011.0
20260507181537 85 16 1.0 5.0 0.00 0.00 0.00 78 1011.4
20260507180037 85 290 2.0 5.0 0.00 0.00 0.00 80 1011.5
20260507174541 86 289 2.0 8.0 0.00 0.00 0.00 78 1011.7
20260507173036 87 71 3.0 9.0 0.00 0.00 0.00 76 1011.9
20260507171536 88 320 2.0 5.0 0.00 0.00 0.00 75 1012.2
20260507170041 87 304 2.0 8.0 0.00 0.00 0.00 76 1012.3
20260507164533 87 293 2.0 8.0 0.00 0.00 0.00 75 1012.5
20260507163029 86 328 2.0 7.0 0.00 0.00 0.00 78 1012.6
20260507161529 86 281 2.0 7.0 0.00 0.00 0.00 76 1012.9
20260507160032 86 287 2.0 8.0 0.00 0.00 0.00 76 1013.0
20260507154528 87 281 2.0 7.0 0.00 0.00 0.00 76 1013.0
20260507153027 86 322 1.0 6.0 0.00 0.00 0.00 77 1013.1
20260507151527 84 264 1.0 6.0 0.00 0.00 0.00 77 1013.1
20260507150031 85 270 1.0 7.0 0.00 0.00 0.00 75 1013.2
20260507144526 86 318 2.0 5.0 0.00 0.00 0.00 73 1013.1
20260507143028 85 295 2.0 7.0 0.00 0.00 0.00 75 1013.2
20260507141524 86 297 0.0 5.0 0.00 0.00 0.00 77 1013.3
20260507140023 86 331 1.0 5.0 0.00 0.00 0.00 73 1013.3
20260507134521 86 278 1.0 5.0 0.00 0.00 0.00 71 1013.3
20260507133019 85 21 1.0 4.0 0.00 0.00 0.00 73 1013.2
20260507131525 84 359 2.0 5.0 0.00 0.00 0.00 75 1013.2
20260507130017 83 20 0.0 4.0 0.00 0.00 0.00 77 1013.1
20260507124513 83 25 1.0 3.0 0.00 0.00 0.00 76 1013.2
20260507123010 82 23 0.0 2.0 0.00 0.00 0.00 78 1013.0
20260507121509 81 21 0.0 4.0 0.00 0.00 0.00 79 1012.8
20260507120022 81 30 1.0 4.0 0.00 0.00 0.00 79 1012.5
20260507114504 79 86 1.0 3.0 0.00 0.00 0.00 81 1012.4
20260507113005 78 98 2.0 4.0 0.00 0.00 0.00 83 1012.2
20260507111507 77 98 0.0 3.0 0.00 0.00 0.00 84 1012.2
20260507110002 76 64 1.0 2.0 0.00 0.00 0.00 87 1012.1
20260507104601 75 94 1.0 2.0 0.00 0.00 0.00 87 1012.0
20260507103059 74 115 0.0 1.0 0.00 0.00 0.00 89 1012.0
20260507101605 72 106 0.0 1.0 0.00 0.00 0.00 92 1011.9
20260507100058 72 115 1.0 2.0 0.00 0.00 0.00 93 1011.8
20260507094557 72 93 0.0 0.0 0.00 0.00 0.00 93 1011.6
20260507093058 72 96 0.0 2.0 0.00 0.00 0.00 94 1011.3
20260507091557 72 107 0.0 2.0 0.00 0.00 0.00 94 1011.3
20260507090055 73 105 0.0 1.0 0.00 0.00 0.00 94 1011.3
20260507084551 73 96 0.0 1.0 0.00 0.00 0.00 95 1011.4
20260507083048 73 131 0.0 1.0 0.00 0.00 0.00 95 1011.7
20260507081549 74 120 0.0 1.0 0.00 0.00 0.00 95 1011.6
20260507080049 74 90 0.0 1.0 0.00 0.00 0.00 95 1011.6
20260507074558 74 131 0.0 1.0 0.00 0.00 0.00 95 1011.5
20260507073042 74 96 0.0 3.0 0.00 0.00 0.00 95 1011.5
20260507071542 74 102 0.0 3.0 0.00 0.00 0.00 95 1011.5
20260507070040 75 92 0.0 1.0 0.00 0.00 0.00 95 1011.7
20260507064537 75 120 0.0 4.0 0.00 0.00 0.00 95 1011.8
20260507063035 75 112 0.0 2.0 0.00 0.00 0.00 94 1011.9
20260507061535 76 88 0.0 3.0 0.00 0.00 0.00 94 1012.1
20260507060030 77 124 0.0 2.0 0.00 0.00 0.00 93 1012.3
20260507054526 78 105 0.0 0.0 0.00 0.00 0.00 92 1012.5
20260507053025 78 112 0.0 0.0 0.00 0.00 0.00 91 1012.7
20260507051524 78 86 0.0 1.0 0.00 0.00 0.00 91 1012.7
20260507050026 79 89 0.0 1.0 0.00 0.00 0.00 91 1012.9
20260507044518 79 93 0.0 0.0 0.00 0.00 0.00 92 1013.1
20260507043016 79 136 0.0 2.0 0.00 0.00 0.00 92 1013.3
20260507041515 79 231 0.0 2.0 0.00 0.00 0.00 92 1013.5
20260507040013 79 214 0.0 3.0 0.00 0.00 0.00 92 1013.7
20260507034513 79 200 1.0 2.0 0.00 0.00 0.00 91 1013.9
20260507033019 79 205 0.0 2.0 0.00 0.00 0.00 92 1013.8
20260507031511 79 115 0.0 0.0 0.00 0.00 0.00 92 1013.9
20260507030011 79 115 0.0 0.0 0.00 0.00 0.00 91 1014.1
20260507024510 79 143 0.0 0.0 0.00 0.00 0.00 91 1014.1
20260507023009 79 143 0.0 0.0 0.00 0.00 0.00 90 1014.0
20260507021509 80 124 0.0 0.0 0.00 0.00 0.00 90 1014.0
20260507020011 79 133 0.0 0.0 0.00 0.00 0.00 90 1013.9
20260507014508 79 133 0.0 0.0 0.00 0.00 0.00 90 1013.7
20260507013007 79 140 0.0 0.0 0.00 0.00 0.00 90 1013.6
20260507011506 80 140 0.0 0.0 0.00 0.00 0.00 90 1013.5
20260507010007 80 120 0.0 1.0 0.00 0.00 0.00 89 1013.4
20260507004507 80 102 0.0 2.0 0.00 0.00 0.00 88 1013.3
20260507003005 80 94 0.0 3.0 0.00 0.00 0.00 88 1013.4
20260507001506 81 110 0.0 0.0 0.00 0.00 0.00 87 1013.2
20260507000005 81 108 0.0 2.0 0.00 0.00 0.00 86 1013.0
20260506234504 82 75 0.0 3.0 0.00 0.00 0.00 85 1012.9
20260506233004 82 32 1.0 3.0 0.00 0.00 0.00 83 1012.8
20260506231504 82 2 0.0 6.0 0.00 0.00 0.00 81 1012.6
20260506230003 82 27 0.0 5.0 0.00 0.00 0.00 80 1012.3
20260506224503 82 23 1.0 5.0 0.00 0.00 0.00 80 1012.1
20260506223002 83 334 1.0 6.0 0.00 0.00 0.00 80 1012.0
20260506221501 83 299 0.0 5.0 0.00 0.00 0.00 81 1011.9
20260506220005 83 23 1.0 4.0 0.00 0.00 0.00 81 1011.7
20260506214604 84 359 2.0 6.0 0.00 0.00 0.00 80 1011.6
20260506213122 85 327 2.0 6.0 0.00 0.00 0.00 78 1011.5
20260506211600 85 295 1.0 5.0 0.00 0.00 0.00 78 1011.4
20260506210059 85 297 0.0 5.0 0.00 0.00 0.00 79 1011.3
20260506204559 86 300 3.0 7.0 0.00 0.00 0.00 77 1011.2
20260506203057 86 296 1.0 7.0 0.00 0.00 0.00 77 1011.3
20260506201557 86 312 1.0 9.0 0.00 0.00 0.00 75 1011.3
20260506200056 86 299 1.0 5.0 0.00 0.00 0.00 73 1011.4
20260506194616 86 313 2.0 7.0 0.00 0.00 0.00 73 1011.6
20260506193103 86 276 2.0 7.0 0.00 0.00 0.00 75 1011.6
20260506191552 85 320 2.0 6.0 0.00 0.00 0.00 73 1011.7
20260506190051 86 289 0.0 7.0 0.00 0.00 0.00 73 1011.9